Temp
-11 -11 -12 -12 -12 -12 -12 -12 -12 -12 -12 -12 -12 -12 -12 -12 -12 -12 -11 -12 -11 -11 -11 -11 -11 -11 -11 -11 -11 -11 -11 -11 -11 -11 -11 -11 -11 -10 -10 -10 -10 -9 -9 -7 -7 -7 -6 -7 -6 -6 -6 -6 -5 -5
-12 -12 -12 -12 -12 -12 -12 -12 -12 -12 -12 -12 -12 -12 -12 -12 -12 -12 -12 -11 -11 -11 -11 -11 -11 -11 -11 -11 -11 -11 -11 -11 -11 -11 -11 -11 -11 -11 -11 -11 -11 -9 -10 -10 -9 -9 -8 -8 -7 -7 -7 -6 -6 -5
-11 -12 -12 -12 -12 -12 -12 -12 -12 -12 -12 -12 -12 -12 -12 -12 -12 -12 -11 -11 -11 -11 -11 -11 -11 -11 -11 -11 -11 -11 -11 -11 -11 -12 -11 -12 -11 -11 -11 -10 -10 -9 -10 -9 -9 -9 -9 -8 -8 -7 -7 -8 -7 -7
-11 -12 -12 -12 -12 -12 -12 -12 -12 -12 -12 -12 -12 -12 -12 -12 -11 -11 -11 -11 -11 -11 -11 -11 -11 -12 -12 -12 -11 -11 -12 -11 -11 -11 -12 -11 -11 -11 -11 -11 -10 -10 -9 -9 -9 -8 -9 -9 -9 -9 -8 -7 -7 -7
-11 -11 -12 -12 -12 -12 -12 -12 -12 -12 -12 -12 -12 -12 -11 -11 -11 -11 -11 -11 -11 -11 -11 -11 -12 -12 -11 -11 -11 -11 -11 -11 -11 -11 -11 -11 -11 -11 -11 -11 -9 -9 -10 -10 -10 -9 -9 -9 -9 -8 -7 -7 -7 -8
-11 -11 -11 -12 -12 -12 -12 -12 -11 -12 -12 -12 -12 -11 -11 -11 -11 -11 -11 -11 -11 -11 -11 -12 -11 -11 -11 -11 -11 -11 -11 -11 -11 -12 -12 -11 -11 -12 -12 -11 -9 -9 -9 -9 -10 -10 -9 -8 -8 -8 -8 -8 -8 -8
-11 -11 -11 -11 -11 -12 -12 -11 -12 -12 -12 -12 -12 -11 -11 -11 -12 -12 -11 -11 -11 -11 -11 -11 -11 -11 -11 -11 -11 -11 -11 -11 -12 -12 -11 -11 -11 -12 -12 -10 -8 -9 -10 -10 -11 -10 -10 -9 -8 -8 -8 -8 -8 -7
-11 -11 -11 -11 -11 -11 -11 -12 -12 -12 -12 -12 -12 -12 -12 -12 -12 -12 -12 -11 -11 -11 -11 -11 -11 -11 -11 -11 -11 -11 -11 -12 -12 -12 -11 -11 -11 -12 -12 -9 -9 -10 -11 -11 -10 -11 -10 -9 -8 -8 -8 -8 -9 -9
-12 -12 -11 -11 -11 -12 -12 -12 -12 -12 -12 -12 -12 -12 -12 -12 -12 -12 -11 -11 -11 -12 -12 -12 -11 -11 -12 -12 -12 -12 -12 -11 -12 -11 -11 -12 -12 -12 -9 -11 -11 -11 -12 -11 -11 -12 -10 -9 -9 -9 -8 -8 -8 -8
-12 -12 -12 -12 -12 -12 -12 -12 -12 -12 -12 -12 -12 -12 -12 -12 -12 -12 -12 -12 -12 -12 -12 -12 -12 -12 -12 -12 -12 -12 -13 -13 -13 -12 -12 -12 -10 -11 -12 -11 -11 -11 -11 -11 -11 -11 -11 -10 -10 -9 -9 -8 -9 -8
-12 -12 -12 -12 -13 -13 -13 -13 -12 -12 -12 -12 -12 -12 -12 -12 -12 -12 -12 -12 -12 -12 -12 -12 -12 -12 -12 -12 -13 -13 -13 -13 -13 -13 -13 -12 -12 -12 -12 -11 -10 -11 -10 -11 -10 -11 -11 -11 -11 -10 -9 -9 -8 -9
-12 -12 -13 -13 -13 -13 -13 -13 -13 -13 -13 -13 -12 -12 -12 -12 -12 -12 -12 -12 -12 -12 -12 -12 -12 -12 -13 -13 -13 -13 -13 -14 -14 -13 -13 -13 -12 -12 -11 -9 -9 -9 -9 -10 -10 -10 -10 -11 -10 -10 -8 -8 -9 -9
-13 -13 -13 -13 -13 -13 -13 -13 -13 -13 -13 -13 -13 -13 -13 -12 -12 -12 -12 -12 -12 -12 -12 -13 -13 -13 -13 -13 -13 -13 -13 -13 -13 -13 -12 -12 -12 -11 -11 -10 -10 -10 -10 -10 -10 -10 -11 -10 -10 -9 -8 -8 -9 -9
-12 -12 -12 -12 -13 -13 -13 -13 -13 -13 -13 -13 -13 -13 -12 -12 -12 -12 -12 -12 -13 -13 -13 -12 -13 -13 -13 -13 -13 -13 -12 -13 -13 -12 -11 -12 -12 -11 -11 -11 -10 -10 -10 -10 -10 -10 -10 -10 -10 -9 -9 -9 -9 -9
-12 -12 -12 -12 -12 -13 -13 -13 -13 -13 -13 -13 -13 -13 -12 -12 -12 -12 -12 -13 -13 -13 -13 -12 -12 -12 -12 -13 -13 -12 -12 -12 -12 -11 -12 -12 -11 -11 -11 -11 -11 -11 -11 -11 -11 -10 -10 -10 -10 -9 -9 -9 -11 -10
-12 -12 -12 -13 -13 -13 -13 -13 -13 -13 -13 -13 -13 -12 -12 -12 -12 -12 -12 -12 -12 -12 -12 -12 -12 -12 -12 -12 -12 -12 -12 -11 -12 -12 -12 -12 -12 -11 -11 -11 -11 -11 -11 -11 -11 -10 -10 -10 -10 -10 -11 -11 -11 -10
-12 -12 -13 -13 -13 -13 -13 -13 -13 -13 -13 -12 -12 -12 -12 -12 -13 -13 -13 -13 -12 -12 -12 -12 -12 -12 -12 -12 -12 -11 -12 -12 -12 -12 -12 -12 -11 -11 -11 -11 -11 -11 -11 -11 -11 -11 -11 -11 -10 -10 -10 -10 -10 -10
-13 -13 -13 -13 -13 -13 -13 -13 -13 -13 -13 -13 -13 -13 -13 -13 -13 -13 -13 -13 -13 -12 -12 -12 -12 -12 -11 -12 -11 -12 -12 -12 -12 -12 -12 -11 -11 -11 -10 -10 -11 -11 -11 -11 -11 -11 -11 -11 -11 -11 -11 -11 -11 -11
-13 -13 -13 -14 -14 -14 -14 -14 -13 -14 -13 -13 -13 -13 -13 -13 -13 -13 -13 -13 -13 -13 -13 -13 -12 -12 -13 -12 -12 -12 -12 -12 -12 -12 -12 -12 -12 -11 -11 -11 -11 -11 -11 -11 -12 -12 -12 -12 -11 -11 -11 -11 -11 -11
-12 -12 -13 -14 -14 -14 -14 -14 -14 -14 -13 -13 -13 -14 -13 -13 -13 -13 -13 -13 -13 -13 -13 -13 -12 -12 -12 -12 -13 -13 -13 -13 -12 -12 -13 -13 -13 -12 -12 -12 -12 -11 -11 -11 -11 -12 -12 -12 -12 -12 -12 -12 -12 -12
-12 -13 -13 -14 -14 -14 -14 -15 -15 -14 -14 -14 -14 -14 -13 -13 -13 -14 -13 -13 -13 -13 -13 -13 -13 -13 -13 -13 -13 -13 -13 -13 -13 -13 -13 -13 -13 -13 -13 -13 -13 -12 -12 -12 -12 -12 -12 -12 -12 -12 -12 -12 -12 -12
-12 -12 -12 -13 -14 -15 -15 -15 -15 -15 -14 -14 -14 -14 -14 -13 -13 -13 -13 -13 -13 -13 -13 -13 -13 -13 -13 -13 -13 -13 -13 -13 -13 -13 -13 -13 -13 -13 -13 -13 -13 -13 -13 -13 -12 -12 -12 -12 -12 -12 -12 -12 -12 -12
-12 -12 -12 -13 -14 -15 -15 -14 -14 -14 -14 -15 -14 -15 -14 -14 -14 -14 -13 -13 -13 -13 -13 -13 -13 -14 -14 -14 -14 -14 -14 -14 -14 -14 -14 -13 -13 -13 -13 -13 -13 -13 -13 -13 -13 -13 -12 -12 -12 -12 -12 -12 -12 -12
-12 -12 -12 -14 -14 -15 -15 -15 -15 -15 -16 -16 -15 -15 -15 -15 -15 -14 -14 -14 -15 -15 -14 -14 -14 -14 -14 -14 -14 -14 -14 -15 -15 -14 -14 -14 -14 -14 -13 -13 -13 -13 -13 -14 -14 -13 -13 -13 -13 -12 -12 -12 -12 -12
-13 -13 -13 -14 -14 -15 -16 -16 -16 -16 -17 -17 -17 -17 -17 -16 -15 -15 -15 -15 -15 -15 -15 -15 -15 -15 -15 -15 -15 -15 -15 -15 -15 -15 -15 -15 -15 -14 -14 -14 -15 -15 -15 -15 -15 -14 -14 -14 -13 -13 -13 -13 -13 -13
-13 -13 -14 -14 -15 -16 -16 -17 -17 -18 -18 -18 -18 -18 -18 -17 -17 -16 -16 -16 -15 -16 -16 -16 -16 -16 -16 -16 -16 -16 -16 -16 -16 -16 -16 -16 -16 -16 -17 -17 -17 -16 -16 -16 -16 -16 -15 -15 -14 -14 -14 -14 -14 -13
-13 -14 -15 -15 -16 -16 -17 -17 -18 -18 -19 -20 -20 -20 -19 -19 -18 -19 -19 -19 -19 -18 -18 -17 -17 -17 -17 -17 -17 -17 -17 -17 -16 -16 -16 -16 -17 -17 -17 -17 -17 -17 -17 -17 -17 -17 -16 -16 -16 -15 -15 -15 -14 -14
-14 -15 -15 -16 -16 -17 -17 -18 -19 -19 -20 -20 -20 -20 -20 -20 -20 -20 -19 -19 -19 -19 -18 -18 -18 -18 -17 -17 -17 -17 -17 -17 -17 -17 -17 -17 -17 -17 -17 -17 -17 -17 -17 -17 -17 -17 -17 -17 -16 -16 -16 -15 -15 -15
-14 -15 -15 -16 -16 -17 -18 -18 -19 -19 -20 -21 -21 -21 -21 -20 -20 -20 -20 -20 -19 -19 -19 -19 -18 -18 -18 -18 -18 -18 -17 -17 -17 -17 -17 -17 -17 -17 -17 -17 -17 -17 -17 -17 -17 -17 -16 -16 -16 -16 -16 -16 -15 -15
-14 -15 -15 -16 -16 -18 -18 -19 -19 -20 -20 -21 -21 -21 -21 -21 -21 -21 -21 -20 -20 -20 -19 -19 -19 -19 -18 -18 -18 -18 -18 -18 -17 -17 -17 -17 -17 -17 -17 -17 -17 -17 -17 -17 -17 -17 -17 -16 -16 -16 -16 -16 -16 -15
-15 -15 -15 -16 -16 -18 -18 -19 -19 -19 -20 -20 -20 -21 -21 -21 -21 -21 -21 -21 -21 -20 -20 -20 -19 -19 -19 -19 -19 -19 -18 -18 -18 -18 -18 -17 -17 -17 -17 -17 -17 -17 -17 -17 -17 -17 -17 -17 -17 -17 -17 -16 -16 -16
-15 -15 -16 -16 -17 -18 -18 -19 -19 -19 -20 -20 -21 -21 -21 -21 -21 -21 -21 -21 -21 -21 -21 -21 -21 -20 -20 -20 -20 -20 -20 -19 -19 -19 -19 -19 -19 -19 -19 -18 -18 -18 -18 -18 -17 -17 -17 -17 -17 -17 -17 -17 -17 -17
-15 -16 -16 -17 -17 -18 -18 -19 -19 -20 -20 -20 -21 -21 -21 -21 -20 -21 -21 -21 -21 -21 -21 -21 -21 -21 -21 -21 -21 -21 -20 -20 -20 -20 -20 -19 -19 -19 -19 -19 -19 -19 -19 -18 -18 -18 -18 -18 -18 -18 -18 -18 -18 -17
Height
2850 2842 2834 2827 2822 2820 2819 2820 2821 2825 2828 2831 2837 2843 2847 2852 2857 2862 2868 2874 2879 2882 2886 2888 2891 2893 2894 2895 2896 2897 2897 2896 2896 2896 2895 2894 2892 2889 2887 2882 2880 2877 2871 2868 2870 2872 2871 2869 2871 2875 2875 2875 2878 2881
2848 2841 2834 2829 2825 2823 2822 2822 2824 2826 2829 2833 2837 2841 2845 2851 2855 2860 2866 2870 2875 2881 2884 2886 2888 2890 2891 2892 2894 2894 2895 2894 2894 2894 2894 2893 2892 2890 2888 2884 2883 2880 2880 2877 2876 2872 2869 2867 2867 2870 2870 2873 2878 2881
2848 2842 2837 2831 2829 2828 2827 2826 2826 2828 2831 2834 2838 2842 2846 2850 2854 2861 2863 2867 2875 2879 2883 2884 2886 2887 2887 2889 2890 2892 2892 2892 2892 2892 2892 2892 2891 2889 2887 2884 2882 2881 2880 2877 2876 2872 2869 2869 2867 2868 2868 2871 2876 2880
2851 2845 2840 2836 2834 2833 2831 2830 2830 2832 2835 2837 2840 2843 2847 2851 2855 2859 2864 2871 2875 2878 2881 2883 2883 2884 2884 2886 2887 2889 2889 2890 2890 2890 2889 2888 2888 2886 2884 2881 2878 2879 2876 2875 2873 2873 2872 2871 2872 2871 2870 2872 2875 2878
2855 2849 2844 2842 2839 2837 2836 2836 2836 2838 2839 2841 2843 2847 2850 2853 2857 2863 2868 2871 2873 2879 2879 2881 2882 2883 2884 2884 2885 2886 2887 2887 2887 2887 2886 2886 2884 2883 2879 2877 2873 2873 2872 2872 2871 2871 2869 2870 2872 2872 2871 2871 2873 2875
2861 2856 2851 2848 2846 2845 2843 2842 2842 2843 2844 2847 2849 2852 2854 2857 2861 2865 2868 2871 2873 2876 2879 2880 2882 2882 2882 2883 2883 2884 2884 2884 2884 2884 2883 2880 2880 2881 2876 2870 2867 2868 2869 2866 2865 2866 2866 2867 2868 2870 2870 2870 2872 2871
2868 2864 2859 2856 2854 2853 2852 2851 2851 2851 2851 2853 2855 2856 2858 2861 2864 2868 2871 2872 2873 2875 2878 2880 2880 2880 2880 2881 2881 2881 2881 2881 2881 2880 2877 2876 2876 2875 2869 2862 2860 2862 2861 2860 2859 2858 2857 2861 2863 2864 2866 2867 2867 2868
2873 2871 2867 2864 2862 2860 2859 2858 2858 2857 2858 2859 2860 2861 2864 2866 2868 2869 2870 2871 2872 2874 2876 2877 2878 2879 2879 2879 2879 2879 2878 2878 2876 2875 2872 2871 2869 2866 2857 2853 2853 2853 2851 2851 2852 2851 2850 2854 2855 2857 2861 2864 2864 2865
2876 2875 2873 2871 2869 2867 2866 2865 2865 2864 2864 2865 2866 2866 2868 2870 2870 2871 2871 2872 2872 2876 2874 2875 2876 2877 2877 2876 2876 2876 2874 2872 2870 2867 2866 2866 2859 2852 2848 2845 2842 2841 2840 2840 2842 2843 2843 2847 2847 2852 2855 2860 2862 2866
2880 2878 2877 2875 2873 2872 2872 2871 2870 2869 2869 2869 2869 2869 2869 2870 2870 2871 2872 2872 2872 2873 2873 2874 2875 2875 2876 2875 2873 2873 2870 2868 2865 2863 2860 2855 2848 2846 2841 2836 2832 2829 2828 2829 2832 2837 2839 2841 2844 2848 2851 2856 2860 2863
2887 2884 2881 2880 2878 2877 2876 2876 2875 2874 2873 2873 2872 2871 2871 2870 2871 2871 2871 2872 2872 2872 2872 2873 2873 2873 2873 2873 2872 2870 2867 2866 2864 2863 2859 2852 2843 2838 2831 2822 2816 2813 2817 2824 2828 2833 2837 2839 2841 2844 2847 2851 2854 2857
2891 2890 2887 2885 2883 2881 2880 2879 2878 2877 2876 2876 2875 2873 2873 2872 2872 2872 2871 2872 2872 2872 2872 2872 2872 2872 2871 2870 2868 2867 2865 2865 2862 2861 2858 2851 2845 2837 2826 2818 2814 2810 2817 2823 2826 2831 2835 2838 2840 2841 2843 2848 2851 2854
2894 2892 2891 2889 2887 2885 2884 2882 2880 2879 2878 2876 2875 2874 2874 2873 2872 2871 2871 2871 2871 2871 2871 2871 2871 2870 2869 2868 2867 2866 2864 2862 2861 2859 2857 2854 2846 2840 2831 2824 2821 2821 2823 2826 2828 2831 2835 2837 2838 2840 2842 2846 2848 2852
2895 2893 2891 2890 2888 2887 2885 2884 2882 2880 2879 2877 2875 2874 2873 2872 2872 2871 2871 2871 2871 2870 2870 2869 2868 2867 2866 2865 2864 2863 2863 2861 2859 2857 2857 2855 2850 2845 2840 2835 2832 2829 2829 2830 2832 2835 2836 2837 2838 2841 2843 2844 2847 2851
2894 2893 2891 2890 2888 2887 2885 2883 2882 2880 2879 2877 2876 2873 2872 2871 2871 2871 2870 2870 2869 2868 2867 2867 2865 2865 2864 2863 2862 2862 2861 2858 2857 2857 2857 2855 2852 2849 2846 2843 2840 2838 2837 2836 2836 2836 2836 2837 2839 2840 2839 2841 2843 2848
2892 2891 2889 2887 2886 2885 2883 2882 2880 2878 2877 2876 2873 2872 2871 2870 2870 2869 2869 2868 2867 2867 2866 2865 2864 2863 2862 2861 2860 2859 2858 2857 2857 2857 2856 2855 2853 2851 2848 2846 2844 2842 2841 2840 2839 2838 2837 2836 2837 2837 2840 2842 2845 2846
2887 2886 2885 2883 2881 2880 2878 2877 2876 2874 2873 2871 2869 2869 2868 2867 2867 2867 2866 2866 2865 2865 2864 2864 2863 2861 2861 2859 2857 2856 2857 2857 2856 2855 2855 2853 2852 2850 2848 2845 2843 2842 2842 2841 2840 2840 2840 2840 2840 2840 2840 2841 2843 2843
2884 2883 2881 2879 2877 2876 2874 2873 2871 2869 2866 2865 2865 2864 2863 2863 2863 2863 2863 2863 2863 2862 2862 2862 2861 2860 2859 2857 2857 2857 2856 2855 2854 2853 2852 2851 2849 2847 2845 2843 2841 2839 2838 2838 2839 2838 2838 2838 2839 2840 2840 2840 2840 2840
2883 2880 2877 2875 2873 2872 2870 2868 2867 2864 2862 2861 2860 2859 2859 2859 2859 2860 2860 2860 2860 2859 2859 2858 2857 2855 2855 2855 2854 2854 2853 2852 2851 2849 2848 2847 2846 2844 2843 2840 2838 2837 2836 2834 2833 2833 2834 2835 2835 2835 2836 2836 2836 2835
2879 2876 2873 2871 2869 2867 2866 2864 2863 2861 2858 2858 2857 2856 2855 2855 2855 2855 2855 2855 2854 2854 2853 2852 2851 2851 2851 2851 2851 2850 2849 2849 2848 2847 2845 2843 2842 2841 2839 2837 2835 2833 2832 2830 2830 2829 2830 2830 2829 2830 2831 2831 2831 2830
2877 2873 2869 2867 2865 2864 2863 2860 2859 2858 2856 2856 2854 2853 2852 2851 2851 2849 2848 2848 2847 2846 2846 2845 2846 2846 2846 2846 2846 2845 2845 2844 2843 2843 2842 2841 2839 2837 2836 2834 2832 2829 2827 2826 2826 2826 2826 2827 2827 2827 2828 2828 2828 2827
2874 2869 2865 2863 2861 2860 2859 2858 2857 2855 2854 2853 2852 2850 2848 2846 2844 2843 2842 2840 2839 2839 2840 2840 2841 2841 2842 2842 2842 2841 2841 2840 2839 2838 2837 2836 2835 2834 2832 2830 2829 2827 2825 2823 2822 2822 2822 2822 2823 2823 2823 2823 2823 2822
2872 2867 2863 2861 2860 2859 2860 2857 2855 2852 2852 2850 2848 2847 2845 2843 2842 2840 2837 2834 2832 2834 2835 2834 2836 2837 2837 2837 2837 2837 2836 2835 2834 2834 2833 2832 2830 2829 2827 2826 2824 2823 2822 2821 2819 2819 2818 2818 2818 2818 2819 2819 2818 2817
2870 2866 2863 2860 2859 2858 2857 2856 2854 2851 2849 2847 2845 2843 2841 2840 2839 2836 2834 2833 2832 2832 2832 2832 2832 2832 2832 2832 2832 2831 2831 2830 2829 2828 2827 2826 2824 2822 2821 2820 2819 2817 2817 2816 2816 2815 2814 2813 2813 2813 2814 2813 2813 2812
2868 2865 2863 2859 2856 2855 2853 2851 2849 2847 2844 2842 2839 2837 2835 2835 2834 2832 2829 2829 2828 2828 2828 2828 2828 2828 2827 2826 2826 2826 2825 2825 2824 2823 2822 2821 2819 2817 2815 2813 2813 2812 2812 2812 2811 2811 2810 2810 2809 2808 2808 2808 2808 2807
2865 2862 2861 2857 2853 2851 2848 2845 2842 2839 2837 2835 2833 2831 2830 2829 2829 2825 2822 2822 2823 2823 2823 2823 2823 2822 2822 2822 2822 2821 2820 2820 2820 2819 2818 2816 2815 2813 2812 2811 2810 2809 2808 2808 2807 2806 2806 2805 2805 2804 2804 2804 2804 2804
2862 2859 2856 2853 2850 2847 2843 2839 2837 2834 2832 2830 2828 2828 2827 2825 2823 2822 2821 2820 2820 2819 2819 2819 2819 2819 2818 2818 2818 2818 2817 2817 2817 2816 2814 2813 2812 2811 2810 2809 2808 2807 2805 2804 2803 2802 2802 2801 2801 2800 2800 2799 2799 2799
2858 2854 2851 2848 2843 2840 2837 2834 2831 2829 2827 2827 2826 2826 2825 2823 2822 2821 2820 2818 2817 2816 2816 2815 2815 2815 2815 2814 2814 2814 2814 2814 2813 2812 2811 2810 2809 2807 2806 2805 2803 2802 2801 2800 2799 2798 2797 2797 2796 2796 2795 2795 2794 2793
2851 2849 2846 2843 2839 2835 2832 2830 2828 2826 2824 2823 2821 2820 2819 2819 2818 2818 2817 2816 2815 2814 2813 2812 2811 2811 2811 2811 2810 2811 2811 2811 2811 2810 2809 2808 2806 2805 2802 2801 2799 2798 2796 2795 2793 2792 2791 2791 2790 2790 2789 2789 2788 2788
2846 2843 2839 2837 2834 2830 2828 2826 2823 2821 2819 2818 2816 2815 2814 2813 2812 2812 2812 2812 2811 2811 2810 2809 2808 2808 2807 2807 2807 2807 2807 2807 2807 2807 2806 2805 2804 2802 2800 2798 2796 2794 2792 2790 2789 2787 2785 2784 2783 2783 2782 2782 2782 2782
2839 2837 2834 2832 2829 2826 2823 2820 2817 2816 2814 2813 2812 2811 2810 2808 2807 2806 2807 2807 2807 2806 2806 2806 2805 2805 2804 2804 2804 2803 2803 2803 2803 2802 2802 2801 2799 2798 2796 2795 2793 2791 2789 2787 2785 2783 2781 2780 2779 2777 2777 2777 2777 2777
2833 2831 2828 2826 2824 2821 2818 2815 2813 2810 2809 2808 2807 2807 2806 2805 2803 2802 2802 2802 2802 2802 2802 2801 2801 2801 2801 2801 2801 2801 2801 2800 2800 2799 2798 2798 2797 2795 2794 2792 2790 2788 2786 2784 2782 2780 2778 2776 2775 2774 2773 2773 2772 2773
2826 2824 2822 2820 2818 2815 2813 2810 2807 2806 2804 2803 2802 2802 2801 2801 2799 2799 2799 2798 2799 2798 2798 2798 2798 2798 2798 2797 2798 2797 2797 2797 2797 2796 2795 2794 2793 2792 2791 2789 2788 2786 2784 2782 2780 2777 2775 2773 2772 2770 2770 2769 2769 2769
Wind_Speed
31 31 26 22 15 10 8 5 6 6 12 11 16 17 17 18 19 21 25 23 24 20 13 13 11 13 10 3 4 3 2 3 3 4 3 4 6 9 11 11 9 8 12 3 15 13 3 9 15 17 11 11 11 11
27 24 21 17 12 10 5 2 2 7 11 12 12 14 15 19 20 26 25 22 20 17 9 10 11 12 14 12 10 7 5 4 2 2 4 4 6 6 13 7 15 6 12 10 9 7 7 7 14 18 18 16 12 12
25 21 19 16 12 10 7 5 2 10 10 10 12 13 15 20 23 19 16 21 16 12 8 10 9 11 11 11 10 10 9 8 6 5 5 5 5 7 7 7 14 15 15 14 12 13 9 5 10 3 13 7 6 7
24 21 16 14 10 9 9 7 8 9 7 10 10 13 16 18 16 12 18 13 12 10 7 4 5 6 6 8 9 9 10 10 8 7 9 10 11 12 14 18 22 19 18 14 17 16 15 8 5 7 1 3 6 10
23 23 16 14 15 13 11 11 11 11 8 10 11 15 13 8 8 15 14 12 11 10 4 6 5 5 4 5 6 6 8 8 7 8 10 14 16 16 18 23 25 19 18 17 19 15 14 13 12 9 5 8 9 14
29 22 20 17 16 15 13 11 9 15 13 15 14 14 7 15 16 11 11 8 7 12 5 7 4 3 4 7 9 8 9 9 11 14 17 19 17 18 15 21 30 25 24 26 25 17 15 15 12 12 9 6 12 22
22 23 20 16 16 18 17 16 14 13 13 13 11 14 16 19 16 10 6 6 8 11 8 5 4 4 4 9 10 11 14 16 17 20 23 24 24 20 27 35 35 36 35 23 18 19 20 13 13 15 11 11 11 25
18 17 20 22 18 15 14 15 13 12 11 9 7 12 12 7 8 6 6 3 5 9 6 4 4 3 4 5 7 9 11 13 18 21 26 28 29 27 29 44 39 30 26 18 17 20 22 20 21 20 15 14 9 6
13 12 14 15 17 17 17 15 14 13 11 9 6 3 6 8 6 5 4 3 3 6 4 4 4 3 3 5 7 13 18 21 21 24 26 25 27 27 38 33 32 28 29 26 18 17 21 25 25 21 20 15 15 13
18 14 14 14 16 16 15 13 13 13 11 9 6 4 2 3 3 1 1 3 3 5 5 5 5 5 9 13 14 11 9 8 10 14 13 15 27 22 22 25 34 31 26 22 20 19 16 24 23 19 19 18 17 21
17 17 16 15 14 13 13 12 10 10 8 8 7 6 2 3 2 1 1 0 1 1 2 3 4 6 8 9 13 9 5 5 4 4 7 7 16 35 33 25 21 17 18 19 19 20 19 18 15 18 17 20 15 27
13 13 13 12 11 9 8 8 7 6 6 6 6 3 2 2 1 1 1 1 1 1 2 2 4 7 10 11 5 5 4 3 5 7 6 6 28 31 27 21 16 4 13 14 14 21 19 13 5 11 15 19 18 18
9 10 11 9 8 8 8 7 6 6 6 7 7 5 4 2 2 2 1 1 1 2 4 6 7 9 9 4 6 4 3 5 8 4 4 15 26 28 31 26 19 12 5 6 12 17 13 10 9 8 17 20 18 15
7 9 10 10 10 10 9 9 9 9 11 12 7 5 3 2 2 1 2 4 4 5 10 11 13 9 11 8 4 3 4 4 3 3 3 14 21 21 24 27 27 22 15 8 5 11 10 8 10 11 16 19 18 17
10 9 9 10 10 10 10 10 11 12 14 10 7 4 4 5 4 5 5 6 8 7 8 9 8 6 7 4 3 4 3 4 3 1 3 10 15 17 17 18 18 20 18 12 8 2 9 7 12 12 14 19 13 10
15 15 14 14 14 14 15 15 16 17 17 12 5 6 9 9 8 8 7 5 6 6 6 7 4 4 4 3 4 4 3 2 2 0 5 10 13 14 13 12 10 7 6 6 6 10 11 2 13 16 9 6 2 5
16 18 17 16 16 17 17 18 19 19 13 7 12 18 16 12 10 10 9 8 6 8 6 4 4 3 4 5 4 2 4 4 1 4 7 10 11 14 15 14 13 10 6 5 3 1 1 2 2 2 5 7 9 10
16 16 15 15 14 14 14 15 15 13 15 19 18 14 15 13 12 12 10 9 8 9 9 7 7 8 5 4 1 0 4 9 9 6 7 7 10 13 16 16 15 15 13 9 7 8 10 9 9 9 9 9 11 14
16 17 17 16 17 17 18 19 11 9 13 13 12 11 12 12 12 12 11 12 12 12 12 11 7 7 8 10 10 12 13 9 7 7 8 9 10 11 12 13 14 14 13 13 11 9 9 11 13 13 12 13 15 16
17 18 17 16 16 15 12 8 13 12 10 11 12 11 10 12 13 15 15 17 18 17 16 18 17 15 15 13 11 11 7 10 11 10 10 11 12 12 13 13 14 14 14 12 11 10 9 7 8 9 9 11 13 14
26 23 18 17 14 12 11 9 9 9 9 9 8 13 12 11 12 14 16 18 21 23 22 22 21 13 12 12 11 10 13 14 14 13 13 11 11 12 13 14 14 16 14 11 10 8 8 7 7 9 10 11 11 12
31 27 19 13 13 10 5 5 8 12 12 10 11 13 13 13 12 11 14 17 20 22 22 20 12 10 11 12 11 12 12 12 13 13 13 13 13 14 16 17 15 13 14 11 10 10 13 17 13 8 9 13 16 19
30 24 16 12 5 4 5 9 9 6 7 10 13 13 8 12 15 18 10 7 17 19 16 8 8 10 12 13 14 14 15 14 15 16 16 16 18 20 20 20 19 16 13 11 10 9 9 9 12 15 16 18 20 20
28 14 12 7 6 7 12 13 18 17 17 16 18 21 18 20 20 15 12 9 6 8 9 10 13 13 13 15 15 16 16 16 17 17 19 21 20 19 19 19 18 17 15 13 12 11 10 11 14 16 18 18 15 15
20 10 9 9 8 10 16 18 18 23 25 24 27 28 24 16 16 17 13 11 12 14 14 15 14 14 14 15 15 15 15 16 17 17 16 16 16 15 14 13 13 13 13 14 15 13 12 12 11 10 11 12 12 12
8 4 8 10 15 16 22 20 17 23 24 21 11 11 11 12 13 9 7 12 15 15 15 13 12 12 11 10 10 9 10 10 10 10 11 11 10 9 9 7 7 8 11 12 11 10 10 11 11 11 11 12 13 12
8 11 17 20 21 22 21 22 20 18 15 8 10 13 7 4 4 2 4 7 9 9 9 9 8 8 8 8 7 6 5 5 6 8 10 10 10 9 9 9 9 10 12 12 11 10 11 11 12 13 13 13 14 14
17 20 21 21 23 22 21 18 14 9 7 8 8 5 5 4 4 9 10 8 7 6 6 7 6 6 6 6 7 6 6 5 5 6 8 10 12 13 13 14 15 15 15 15 15 14 14 14 13 13 14 14 14 14
19 21 22 20 20 20 17 15 13 12 14 15 18 17 16 19 20 16 13 10 7 7 6 5 5 6 6 6 7 8 7 7 9 8 7 10 13 15 15 16 15 15 15 15 16 16 16 16 17 18 17 16 15 15
18 20 21 21 20 18 19 16 16 16 17 17 19 18 17 16 14 15 16 14 13 11 8 9 8 8 8 7 6 7 8 8 9 11 10 9 9 10 11 12 13 14 15 14 14 14 15 14 14 14 15 14 14 14
18 19 20 19 18 18 19 19 17 17 17 14 13 12 13 15 14 14 12 10 10 10 9 8 9 9 9 8 8 8 8 9 9 9 10 9 9 10 11 12 11 12 13 14 14 13 13 13 12 12 12 12 12 11
16 17 19 18 18 18 18 18 17 16 16 15 14 15 15 14 13 11 9 10 9 8 9 10 10 9 9 8 8 9 9 9 8 7 7 8 9 10 11 12 13 14 15 15 15 15 14 12 12 11 10 10 9 8
15 16 16 17 18 18 18 18 18 17 15 15 15 14 13 13 14 12 9 8 9 10 8 7 8 9 9 10 10 10 11 11 11 11 12 12 12 12 13 13 14 15 15 16 17 16 14 13 12 11 10 10 9 9
Wind_Direction
341 340 342 343 338 327 307 270 229 217 213 196 188 203 207 202 207 217 200 207 224 214 220 218 228 222 225 238 223 253 274 260 295 293 306 326 324 338 339 342 345 352 326 222 222 217 211 210 169 181 179 156 158 170
351 354 357 2 1 6 30 50 136 172 171 173 184 196 198 194 202 201 212 219 206 210 212 221 232 245 249 236 239 258 248 271 253 346 337 332 318 338 343 340 350 7 3 348 353 20 48 41 158 169 168 171 194 193
1 5 11 24 36 54 60 21 104 168 159 169 176 181 185 190 195 194 234 186 193 191 212 233 230 244 265 233 238 243 256 258 254 266 289 290 279 299 307 298 314 318 315 322 339 333 7 47 51 103 172 135 200 225
12 16 21 30 35 44 45 77 95 142 148 152 169 177 169 167 187 226 180 178 180 187 202 226 230 227 228 221 232 236 244 252 256 267 281 289 297 309 302 305 304 313 313 318 318 329 322 325 12 18 119 189 252 222
23 27 36 46 47 64 72 80 99 92 123 141 142 146 150 167 201 161 170 183 192 181 187 179 197 213 244 234 233 249 255 257 267 286 291 295 298 307 312 305 296 306 309 306 307 326 300 298 294 308 302 264 230 192
31 36 45 52 58 65 65 71 92 106 107 120 130 139 173 157 153 154 157 170 182 186 187 155 187 221 264 252 255 255 273 277 289 295 295 289 295 306 295 286 298 297 305 311 306 301 274 268 259 271 281 248 223 198
34 43 49 61 73 69 73 75 83 93 113 121 122 124 123 149 140 148 161 156 184 189 190 198 223 248 287 254 268 264 272 280 284 285 284 287 294 291 284 285 299 302 305 298 296 276 258 244 236 238 251 233 236 214
34 41 55 62 69 72 72 78 84 91 105 115 124 95 137 151 115 125 117 113 182 191 209 197 192 243 266 269 268 272 277 278 277 282 285 287 288 283 272 292 303 300 294 278 273 271 258 233 216 220 221 219 221 210
42 55 61 62 61 72 73 76 77 81 86 95 103 100 101 103 103 91 68 46 115 162 181 203 202 257 269 280 286 296 296 295 288 280 284 285 278 262 297 297 293 288 277 263 252 245 238 235 217 214 211 221 198 191
62 62 65 66 66 74 68 68 72 73 74 77 87 104 139 153 151 184 184 182 200 224 237 251 254 263 288 299 300 310 291 284 276 289 294 281 290 315 302 297 303 294 283 240 229 221 220 227 230 216 210 213 214 197
56 61 73 77 77 74 70 71 68 62 61 55 33 18 45 18 17 30 358 189 218 272 260 268 269 289 304 303 305 294 246 264 283 296 292 274 290 339 336 317 310 279 232 223 217 201 222 212 218 228 213 204 231 212
42 47 47 45 51 61 63 55 53 45 37 20 8 3 331 316 307 273 277 240 253 253 273 300 292 303 298 307 291 285 281 258 250 282 276 282 335 359 7 9 5 60 196 194 197 203 221 210 217 240 203 195 220 206
24 24 21 21 30 31 26 21 9 360 1 353 339 318 305 283 261 241 246 244 270 296 295 298 297 296 304 296 275 264 255 249 291 277 293 345 360 27 35 38 44 65 114 205 211 200 194 194 202 186 173 193 195 194
343 348 352 357 359 356 354 352 350 348 344 340 322 294 281 268 274 263 264 309 299 298 305 310 305 281 281 286 257 250 259 276 262 238 350 8 18 29 37 41 45 50 63 61 172 198 201 210 212 208 183 177 177 198
313 322 330 333 335 336 337 338 338 336 334 331 313 275 270 276 266 283 300 305 295 310 313 325 310 278 278 248 245 273 257 250 243 190 341 13 18 22 28 36 37 45 47 40 41 274 229 215 213 229 231 198 172 195
297 296 298 298 298 299 304 308 311 311 312 307 267 287 297 291 280 283 291 294 304 313 307 318 283 274 252 242 236 235 254 345 156 145 325 343 351 354 1 9 24 27 13 31 38 54 52 110 206 183 144 151 195 249
296 296 298 298 297 296 299 299 298 294 289 266 296 306 303 291 265 273 275 283 294 301 302 296 263 270 293 258 240 186 107 74 72 268 298 311 331 334 335 335 336 339 339 324 312 285 190 174 171 187 194 202 228 246
311 313 314 312 309 306 306 307 300 282 276 287 287 290 286 279 272 247 259 269 286 295 295 275 258 256 259 261 298 118 333 334 343 346 346 338 324 316 310 311 318 319 317 309 283 259 255 254 248 242 243 255 267 271
319 314 310 307 304 305 310 311 306 289 302 300 291 279 267 276 265 249 258 272 277 290 295 281 264 252 245 259 271 294 307 315 327 323 314 315 318 318 315 314 310 304 301 302 301 290 271 248 245 249 256 263 270 277
339 330 321 313 309 309 307 273 291 286 285 301 305 293 288 270 266 265 266 269 271 270 268 261 266 271 276 280 285 294 282 307 307 308 311 315 318 319 318 316 313 306 295 288 281 280 283 282 267 264 269 278 283 282
347 341 326 311 310 305 293 276 278 285 299 305 318 321 313 306 298 288 273 265 264 258 255 265 258 256 269 270 280 280 287 300 296 295 298 300 305 314 316 318 324 331 320 295 276 269 274 279 261 266 267 272 280 298
349 345 340 327 316 320 299 287 294 293 293 294 308 311 313 318 319 300 289 275 251 243 252 230 229 249 267 274 281 289 297 299 292 290 295 296 297 310 320 319 314 310 322 314 289 276 255 252 252 267 279 291 298 308
346 344 347 341 344 311 308 319 322 328 313 300 308 311 324 319 323 335 315 253 228 229 222 214 252 263 272 280 286 289 291 292 295 293 285 293 300 300 301 304 308 303 292 301 302 284 277 265 243 245 261 272 286 293
338 334 331 332 309 287 294 294 296 306 301 299 297 301 303 311 313 312 298 300 322 330 300 284 278 280 282 284 285 287 288 291 293 292 291 298 303 304 299 299 294 290 283 276 283 287 289 277 269 266 267 274 275 281
332 324 325 300 304 300 303 301 299 298 296 297 295 294 295 291 282 272 259 284 290 286 284 285 284 279 278 280 284 287 290 294 295 298 302 307 310 310 306 297 288 283 280 278 278 281 290 287 283 274 269 271 274 278
312 283 321 309 309 309 311 307 308 309 308 309 295 291 275 275 270 275 235 260 262 263 271 272 273 277 281 281 283 287 292 297 301 308 316 323 328 335 336 325 315 301 296 297 291 288 283 279 281 280 278 275 271 270
290 297 310 318 313 313 309 312 312 307 303 292 292 304 306 255 248 279 277 268 271 266 255 254 254 262 270 277 281 280 282 301 312 316 320 322 321 318 318 317 310 302 301 302 297 288 287 285 284 281 279 274 267 263
309 307 314 319 318 319 318 318 314 302 285 286 288 291 267 265 276 317 339 330 294 298 284 268 270 269 266 267 273 273 282 285 305 322 331 331 330 324 318 311 306 303 298 293 291 291 286 283 286 286 282 276 272 267
309 314 316 322 321 320 320 316 307 297 291 289 289 291 286 272 273 284 298 319 330 319 310 314 291 281 274 263 262 255 262 278 297 306 319 319 315 318 318 317 313 311 308 304 299 293 286 282 279 281 282 278 274 271
311 317 317 324 326 325 323 318 310 300 295 291 287 291 293 291 289 283 279 277 286 308 308 314 307 297 289 287 283 277 269 273 279 293 296 298 303 309 313 313 312 312 311 309 307 306 305 301 293 285 281 277 272 270
311 313 316 322 326 320 319 318 313 305 297 289 283 291 299 300 292 276 279 281 287 289 287 294 299 297 296 294 293 291 291 291 297 301 305 311 320 327 333 336 335 328 322 320 318 316 312 306 302 296 290 282 274 269
311 311 313 318 324 321 320 321 318 307 296 287 287 291 294 295 307 291 270 279 292 303 295 282 275 272 271 273 277 280 279 274 273 283 298 309 317 326 333 339 346 350 347 339 329 323 320 315 303 297 296 290 280 272
308 309 310 316 322 323 325 323 323 316 301 288 284 282 281 285 289 287 292 302 302 302 294 286 284 280 276 275 276 275 275 277 282 287 292 297 306 315 322 328 332 337 342 345 343 337 328 318 311 300 292 288 279 271